055  
ASUS41 KBOX 220410  
RWRBOX  
 
REGIONAL WEATHER ROUNDUP  
NATIONAL WEATHER SERVICE TAUNTON MA  
1200 AM EDT SUN OCT 22 2017  
 
NOTE: "FAIR" INDICATES FEW OR NO CLOUDS BELOW 12,000 FEET WITH NO  
SIGNIFICANT WEATHER AND/OR S TO VISIBILITY
.  
 
MAZALL-220500-  
EASTERN MASSACHUSETTS  
 
CITY SKY/WX TMP DP RH WIND PRES REMARKS
 
BOSTON CLOUDY 60 49 66 S5 30.32S  
BEVERLY CLOUDY 56 47 71 CALM 30.31S  
LAWRENCE CLOUDY 57 47 69 CALM 30.34S  
BEDFORD CLOUDY 52 44 74 CALM 30.32S  
BLUE HILL N/A 62 41 46 W12 30.33S  
NORWOOD CLOUDY 50 47 89 CALM 30.33S  
MARSHFIELD CLOUDY 59 50 72 VRB5 30.32S  
PLYMOUTH PTCLDY 53 48 83 CALM 30.34S  
TAUNTON CLOUDY 47 45 93 CALM 30.33S  
NEW BEDFORD CLOUDY 53 49 86 CALM 30.33S  

 
 
MAZALL-220500-  
CAPE COD AND THE ISLANDS  
 
CITY SKY/WX TMP DP RH WIND PRES REMARKS
 
FALMOUTH PTCLDY 55 54 94 SW3 30.35S  
HYANNIS PTCLDY 60 56 86 S6 30.34S  
CHATHAM MOCLDY 61 59 93 SW7 30.36R  
PROVINCETOWN CLOUDY 59 55 87 S7 30.34S  
NANTUCKET CLOUDY 60 58 92 SW8 30.36S  
MARTHAS VNYRD PTCLDY 56 56 100 SW5 30.35S  

 
 
MAZALL-220500-  
CENTRAL AND WESTERN MASSACHUSETTS  
 
CITY SKY/WX TMP DP RH WIND PRES REMARKS
 
WORCESTER CLOUDY 60 38 43 W9 30.35S  
FITCHBURG PTCLDY 55 48 77 CALM 30.34S  
ORANGE CLOUDY 46 46 100 CALM 30.35S  
SPRINGFIELD NOT AVBL  
WESTFIELD PTCLDY 46 45 96 CALM 30.34S  
NORTH ADAMS CLOUDY 42 39 89 CALM 30.36S  
PITTSFIELD CLOUDY 46 40 79 CALM 30.35S  

 
 
RIZALL-220500-  
RHODE ISLAND  
 
CITY SKY/WX TMP DP RH WIND PRES REMARKS
 
PROVIDENCE CLOUDY 55 50 83 CALM 30.34S  
NEWPORT CLOUDY 53 51 93 CALM 30.34S  
BLOCK ISLAND CLEAR 60 55 83 W10 30.35F  
SMITHFIELD CLOUDY 51 47 86 CALM 30.34S  
WESTERLY CLEAR 51 49 92 CALM 30.35S  

 
 
CTZALL-220500-  
CONNECTICUT  
 
CITY SKY/WX TMP DP RH WIND PRES REMARKS
 
BRADLEY INTL MOCLDY 50 47 89 CALM 30.34S  
HARTFORD CLOUDY 51 50 96 CALM 30.34S  
BRIDGEPORT PTCLDY 55 48 77 CALM 30.35S  
DANBURY CLOUDY 47 44 90 CALM 30.37S  
GROTON PTCLDY 51 49 92 N3 30.34S  
NEW HAVEN PTCLDY 49 46 90 CALM 30.35S  
CHESTER FAIR 61 48 63 W7 30.35S  
MERIDEN PTCLDY 47 46 97 CALM 30.35S FOG  
WILLIMANTIC CLOUDY 48 45 89 CALM 30.36S  
OXFORD CLOUDY 54 44 69 CALM 30.36S  

 
 
MEZ002-015-021-024-NHZ003-005-008-011-012-014-VTZ005-008-220500-  
NORTHERN NEW ENGLAND  
 
CITY SKY/WX TMP DP RH WIND PRES REMARKS
 
PORTLAND ME CLOUDY 52 49 89 CALM 30.31S  
BANGOR ME CLOUDY 49 42 77 CALM 30.33R  
CONCORD NH CLOUDY 48 45 89 SE3 30.33S  
MANCHESTER NH MOCLDY 55 48 77 CALM 30.31S  
NASHUA NH PTCLDY 52 48 86 W3 30.33  
PORTSMOUTH NH MOCLDY 56 48 75 CALM 30.30R  
JAFFREY NH CLOUDY 49 47 93 S3 30.35F  
KEENE NH CLOUDY 45 45 100 CALM 30.35S  
BURLINGTON VT MOCLDY 53 47 79 CALM 30.30S  
MT. WASHINGTON MOCLDY 45 39 81 NW22 N/A  

 
 
NYZ052-076-220500-  
EASTERN NEW YORK  
 
CITY SKY/WX TMP DP RH WIND PRES REMARKS
 
ALBANY MOCLDY 48 45 89 CALM 30.34R  
NEW YORK CITY MOCLDY 66 46 48 SW6 30.35S  

 
 
ANZALL-220500-  
MARINE OBSERVATIONS  
 
STATION/POSITION TIME TEMP WIND PRES VSBY WAVE
 
AIR SEA DIR/SP/G HT/PER  
(UTC) (F) (DEG/KT/KT) (MB) (MI) (FT/S)  
BOSTON BUOY 0350 60 59 230/ 6/ 8 1026.2S 1  
BUZZARDS BAY 0300 63 240/ 11/ 12 1027.9R  
NANTUCKET SOUND 0350 62 62 230/ 12/ 14 1027.5F 1  
MASS BAY-STELLWA 0304 61 59 230/ 8/ 8 1025.5S 1/ 3  
ISLE OF SHOALS 0300 65 250/ 7/ 8 1026.0R  
S OF BLOCK IS NOT AVBL  

 
   
.....................KEY......................
 
 
SKY/WX - SKY CONDITION/PRESENT WEATHER  
TMP - TEMPERATURE IN FAHRENHEIT  
DWPT - DEWPOINT IN FAHRENHEIT  
RH - RELATIVE HUMIDITY IN PERCENT  
WIND - DIRECTION AND SPEED IN MPH  
PRES - MEAN SEA LEVEL PRESSURE IN INCHES OF HG  
WCI - WIND CHILL INDEX  
VSB - VISIBILITY IN MILES  
HX - HEAT INDEX  
TC - TEMPERATURE IN CELSIUS  
VRB - VARIABLE WIND DIRECTION  
N/A - NOT AVAILABLE  
 
 
CLICK HERE TO GO TO PREVIOUS BULLETINS.

The Nexlab MA Page
The Nexlab RI Page
The Nexlab NH Page
The Nexlab CT Page Main Text Page